Weather History for KMYL - May, 2014

Change the Weather History Date:

Thursday, May 8, 2014

  Actual Average Record
Temperature  
Mean Temperature 41 °F 44 °F  
Max Temperature 56 °F 57 °F 82 °F (1987)
Min Temperature 25 °F 31 °F 18 °F (2002)
Degree Days  
Heating Degree Days 24 21  
Month to date heating degree days 148 177  
Since 1 July heating degree days 7942 8812  
Cooling Degree Days 0 0  
Month to date cooling degree days 0 0  
Year to date cooling degree days 0 0  
Moisture  
Dew Point 28 °F    
Average Humidity 60    
Maximum Humidity 85    
Minimum Humidity 35    
Precipitation  
Precipitation 0.15 in 0.07 in 0.81 in (1991)
Month to date precipitation 0.42 0.54  
Year to date precipitation 13.71 8.13  
Sea Level Pressure  
Sea Level Pressure 29.86 in    
Wind  
Wind Speed 6 mph (SSE)    
Max Wind Speed 18 mph    
Max Gust Speed 23 mph    
Visibility 10 miles    
Events Rain    
T = Trace of Precipitation, MM = Missing Value Source: NWS Daily Summary

Daily Weather History Graph

Daily Weather History Graph

Search for Another Location

Airport or City:

Trip Planner

Search our weather history database for the weather conditions in past years. The results will help you decide how hot, cold, wet, or windy it might be!

Date:

Astronomy

May. 08, 2014 Rise Set
Actual Time 6:24 AM MDT 8:58 PM MDT
Civil Twilight 5:50 AM MDT 9:31 PM MDT
Nautical Twilight 5:09 AM MDT 10:13 PM MDT
Astronomical Twilight 4:21 AM MDT 11:01 PM MDT
Moon 2:47 PM MDT (5/8) 3:13 AM MDT (5/8)
Length of Visible Light 15h 40m
Length of Day
14h 34m
Waxing Gibbous, 65% of the Moon is Illuminated
May 8
Waxing Gibbous
May 14
Full
May 21
Last Quarter
May 28
New
Jun 5
First Quarter

Hourly Weather History & Observations

Time (MDT) Temp. Windchill Dew Point Humidity Pressure Visibility Wind Dir Wind Speed Gust Speed Precip Events Conditions
12:51 AM 37.0 °F 32.4 °F 25.0 °F 62% 29.90 in 10.0 mi North 5.8 mph - N/A   Clear
1:51 AM 32.0 °F - 24.1 °F 73% 29.90 in 10.0 mi Calm Calm - N/A   Clear
3:51 AM 30.0 °F - 21.9 °F 72% 29.89 in 10.0 mi Calm Calm - N/A   Clear
4:51 AM 27.0 °F - 21.9 °F 81% 29.91 in 10.0 mi Calm Calm - N/A   Clear
5:51 AM 26.1 °F - 21.0 °F 81% 29.92 in 10.0 mi Calm Calm - N/A   Clear
6:51 AM 26.1 °F 21.9 °F 21.0 °F 81% 29.93 in 10.0 mi NE 3.5 mph - N/A   Clear
7:51 AM 28.9 °F - 25.0 °F 85% 29.94 in 10.0 mi Calm Calm - N/A   Clear
8:51 AM 35.1 °F - 26.1 °F 70% 29.93 in 10.0 mi Calm Calm - N/A   Clear
9:51 AM 39.9 °F 36.7 °F 27.0 °F 60% 29.92 in 10.0 mi South 4.6 mph - N/A   Clear
10:51 AM 45.0 °F 41.2 °F 27.0 °F 49% 29.90 in 10.0 mi South 6.9 mph - N/A   Clear
11:51 AM 48.9 °F - 26.1 °F 41% 29.89 in 10.0 mi North - - N/A   Clear
12:51 PM 51.1 °F - 24.1 °F 35% 29.87 in 10.0 mi West 5.8 mph - N/A   Overcast
1:51 PM 51.1 °F - 24.1 °F 35% 29.87 in 10.0 mi Variable 5.8 mph - N/A   Overcast
2:51 PM 55.0 °F - 28.0 °F 35% 29.84 in 10.0 mi South 12.7 mph 19.6 mph N/A   Scattered Clouds
3:51 PM 54.0 °F - 26.1 °F 34% 29.83 in 10.0 mi SSE 8.1 mph 19.6 mph N/A   Mostly Cloudy
4:51 PM 54.0 °F - 28.0 °F 37% 29.82 in 10.0 mi South 12.7 mph - N/A   Overcast
5:51 PM 54.0 °F - 28.0 °F 37% 29.81 in 10.0 mi South 11.5 mph 18.4 mph N/A   Overcast
6:51 PM 52.0 °F - 28.0 °F 40% 29.81 in 10.0 mi SW 13.8 mph - N/A   Overcast
7:51 PM 50.0 °F - 30.9 °F 48% 29.81 in 10.0 mi SW 15.0 mph - N/A   Overcast
9:51 PM 42.1 °F 38.4 °F 37.9 °F 85% 29.81 in 6.0 mi SSE 5.8 mph - 0.04 in Rain Light Rain
10:51 PM 42.1 °F 36.1 °F 37.9 °F 85% 29.77 in 10.0 mi SE 10.4 mph - 0.05 in Rain Light Rain
10:58 PM 42.1 °F 37.1 °F 37.9 °F 85% 29.78 in 10.0 mi SE 8.1 mph - 0.00 in Rain Light Rain
11:24 PM 42.1 °F 37.1 °F 37.9 °F 85% 29.78 in 10.0 mi SE 8.1 mph - 0.01 in Rain Light Rain
11:51 PM 42.1 °F 36.1 °F 37.9 °F 85% 29.74 in 8.0 mi SE 10.4 mph - 0.02 in Rain Light Rain